Regional Weather Roundup
Issued by NWS Goodland, KS

Home | Current Version | Previous Version | Graphics & Text | Print | Product List | Glossary On
Versions: 1 2 3 4 5 6 7 8 9 10 11 12 13 14 15 16 17 18 19 20 21 22 23 24 25 26 27 28 29 30 31 32 33 34 35 36 37 38 39 40 41 42 43 44 45 46 47 48 49 50
000
ASUS43 KGLD 282359
RWRGLD

GOODLAND FORECAST AREA HOURLY WEATHER ROUNDUP
NATIONAL WEATHER SERVICE GOODLAND KS
600 PM MDT THU MAY 28 2015

...OFFICIAL OBSERVATIONS...

CITY           SKY/WX    TMP DP  RH WIND       PRES   REMARKS
GOODLAND KS    RAIN      58  51  78 VRB3      29.99R
HILL CITY KS   LGT RAIN  70  54  56 SW12G21   29.89F
IMPERIAL NEB   TSTM      56  52  86 NW24G41   30.00R
MCCOOK NEB     CLOUDY    72  60  66 SE15      29.88R
AKRON CO       CLOUDY    58  53  84 NE3       29.95F
BURLINGTON CO  CLOUDY    59  51  75 SW5       29.99R
LIMON CO       NOT AVBL
$$

...UNOFFICIAL OBSERVATIONS...

CITY           SKY/WX    TMP DP  RH WIND       PRES   REMARKS
COLBY KS       MOSUNNY   64  55  72 SW8       29.93R
LENORA KS        N/A     68  32  26 MISG        N/A
NORTON KS      SUNNY     70  57  64 E8        29.87S
SHARON SPRINGS   N/A     60  54  82 MISG        N/A
KIT CARSON CO    N/A     59  53  79 MISG        N/A
$$


USA.gov is the U.S. government's official web portal to all federal, state and local government web resources and services.